FW3072 Weather Reports


time (UTC)temp
C
wind
direction
speed
KPH
gust
KPH
rain 1hr
cm
rain 24hr
cm
rain mn
cm
humidity
%
barometer
mb
20260507095225 3 27 0.0 0.0 0.00 0.28 0.00 93 1012.4
20260507094204 3 27 0.0 0.0 0.00 0.30 0.00 92 1012.4
20260507093202 3 27 0.0 0.0 0.00 0.33 0.00 93 1012.4
20260507092203 3 27 0.0 0.0 0.00 0.36 0.00 92 1012.4
20260507091202 3 27 0.0 0.0 0.00 0.38 0.00 93 1012.3
20260507090203 3 27 0.0 0.0 0.00 0.41 0.00 92 1012.4
20260507085204 3 27 0.0 0.0 0.00 0.46 0.00 92 1012.4
20260507083202 3 27 0.0 0.0 0.00 0.51 0.00 92 1012.4
20260507082203 3 27 0.0 0.0 0.00 0.56 0.00 92 1012.4
20260507081224 3 27 0.0 0.0 0.00 0.58 0.00 92 1012.3
20260507080204 3 27 0.0 0.0 0.00 0.61 0.00 92 1012.3
20260507075203 3 27 0.0 0.0 0.00 0.64 0.00 92 1012.3
20260507074202 3 27 0.0 0.0 0.00 0.66 0.00 92 1012.1
20260507073203 3 27 0.0 0.0 0.00 0.71 0.00 92 1012.2
20260507072202 3 27 0.0 0.0 0.00 0.74 0.00 92 1012.0
20260507071203 3 27 0.0 0.0 0.00 0.76 0.00 92 1012.2
20260507070202 3 27 0.0 0.0 0.00 0.81 0.00 92 1012.2
20260507065203 4 27 0.0 0.0 0.00 0.84 0.00 92 1012.2
20260507064203 4 27 0.0 0.0 0.00 0.86 0.00 92 1012.4
20260507063203 5 27 0.0 0.0 0.00 0.91 0.00 92 1012.4
20260507062203 5 27 0.0 0.0 0.00 0.94 0.00 92 1012.6
20260507061203 5 27 0.0 0.0 0.00 0.94 0.00 92 1012.6
20260507060202 5 27 0.0 0.0 0.00 0.97 0.00 92 1012.6
20260507055225 5 27 0.0 0.0 0.00 0.97 0.00 92 1012.6
20260507054225 5 27 0.0 0.0 0.00 0.99 0.00 92 1012.8
20260507053204 5 27 0.0 0.0 0.00 1.02 0.00 92 1012.9
20260507052204 5 27 0.0 0.0 0.00 1.04 0.00 92 1012.9
20260507051203 5 27 0.0 0.0 0.00 1.09 0.00 92 1013.0
20260507050203 5 27 0.0 0.0 0.00 1.14 0.00 92 1013.0
20260507045202 5 27 0.0 0.0 0.00 1.19 0.00 92 1013.2
20260507044224 5 27 0.0 0.0 0.00 1.24 0.00 92 1013.1
20260507043202 6 27 0.0 0.0 0.00 1.30 0.00 92 1013.2
20260507042243 6 27 0.0 0.0 0.00 1.35 0.00 92 1013.2
20260507041203 6 27 0.0 0.0 0.00 1.37 0.00 92 1013.1
20260507040202 6 27 0.0 0.0 0.00 1.37 0.00 92 1013.1
20260507035201 6 27 0.0 0.0 0.00 1.40 1.40 92 1013.1
20260507034203 6 27 0.0 0.0 0.00 1.40 1.40 92 1013.0
20260507033201 6 27 0.0 0.0 0.00 1.40 1.40 92 1013.0
20260507032203 6 27 0.0 0.0 0.00 1.40 1.40 92 1012.9
20260507031201 6 27 0.0 0.0 0.00 1.45 1.40 92 1012.9
20260507030202 6 27 0.0 0.0 0.00 1.47 1.40 92 1013.0
20260507025201 6 27 0.0 0.0 0.00 1.50 1.40 92 1012.9
20260507024202 6 27 0.0 0.0 0.00 1.55 1.40 92 1012.9
20260507023224 6 27 0.0 0.0 0.00 1.57 1.40 92 1012.9
20260507022202 6 27 0.0 0.0 0.00 1.60 1.40 92 1012.9
20260507021202 6 27 0.0 0.0 0.00 1.63 1.40 92 1013.0
20260507020202 6 27 0.0 0.0 0.00 1.63 1.40 92 1013.2
20260507015202 6 27 0.0 0.0 0.00 1.65 1.40 92 1013.3
20260507014222 6 27 0.0 0.0 0.00 1.65 1.40 92 1013.3
20260507013223 6 27 0.0 0.0 0.00 1.65 1.40 92 1013.3
20260507012201 6 27 0.0 0.0 0.00 1.68 1.40 91 1013.0
20260507011203 6 27 0.0 0.0 0.00 1.68 1.40 91 1012.9
20260507010201 6 27 0.0 0.0 0.00 1.68 1.40 91 1012.8
20260507005203 6 27 0.0 0.0 0.00 1.70 1.40 91 1012.8
20260507004202 6 27 0.0 0.0 0.00 1.73 1.40 91 1012.7
20260507002244 6 27 0.0 0.0 0.00 1.85 1.40 91 1012.4
20260507001201 6 27 0.0 0.0 0.00 1.93 1.40 91 1012.3
20260507000204 6 27 0.0 0.0 0.00 2.01 1.40 91 1012.3
20260506235203 6 27 0.0 0.0 0.00 2.11 1.40 91 1012.2
20260506234225 6 27 0.0 0.0 0.00 2.18 1.40 91 1012.1
20260506233202 6 54 0.0 0.0 0.00 2.24 1.40 91 1012.2
20260506232222 6 5 0.0 0.0 0.00 2.26 1.40 91 1012.2
20260506231203 6 5 1.6 4.8 0.00 2.29 1.40 91 1012.1
20260506230204 6 34 0.0 9.7 0.00 2.34 1.40 91 1011.9
20260506225222 6 345 1.6 8.0 0.00 2.39 1.40 91 1011.8
20260506224202 6 25 1.6 8.0 0.00 2.44 1.40 91 1011.7
20260506223201 6 315 1.6 14.5 0.00 2.49 1.40 91 1011.4
20260506222203 6 4 1.6 8.0 0.00 2.51 1.40 91 1011.4
20260506221203 6 314 3.2 12.9 0.00 2.59 1.40 91 1011.1
20260506220203 6 343 6.4 11.3 0.00 2.64 1.40 91 1011.2
20260506215201 6 344 4.8 17.7 0.03 2.72 1.40 91 1011.3
20260506214202 6 279 1.6 12.9 0.03 2.77 1.40 90 1011.0
20260506213202 6 300 9.7 17.7 0.03 2.84 1.40 90 1010.9
20260506212202 6 296 8.0 22.5 0.03 2.92 1.40 90 1010.8
20260506211202 7 300 11.3 25.7 0.00 3.02 1.37 89 1010.5
20260506210202 7 296 9.7 20.9 0.00 3.12 1.37 88 1010.3
20260506205201 8 279 12.9 24.1 0.00 3.20 1.37 87 1010.2
20260506204223 8 303 11.3 24.1 0.00 3.25 1.37 87 1010.0
20260506203202 9 311 14.5 27.4 0.00 3.25 1.37 86 1009.8
20260506202222 10 232 6.4 12.9 0.00 3.25 1.37 88 1009.5
20260506201202 10 300 0.0 6.4 0.00 3.25 1.37 89 1009.5
20260506200202 10 237 0.0 6.4 0.00 3.25 1.37 89 1009.6
20260506195202 10 209 1.6 8.0 0.00 3.25 1.37 90 1009.5
20260506194222 9 253 1.6 4.8 0.00 3.25 1.37 90 1009.6
20260506193202 9 124 0.0 0.0 0.00 3.25 1.37 90 1009.6
20260506192202 10 124 0.0 0.0 0.00 3.25 1.37 90 1009.4
20260506191203 10 124 0.0 0.0 0.00 3.25 1.37 90 1009.5
20260506190202 10 124 0.0 0.0 0.00 3.25 1.37 90 1009.4
20260506185201 10 124 0.0 0.0 0.00 3.25 1.37 90 1009.3
20260506184226 10 124 0.0 3.2 0.00 3.25 1.37 91 1009.3
20260506183202 10 124 1.6 6.4 0.00 3.25 1.37 92 1009.3
20260506182202 9 124 1.6 4.8 0.00 3.25 1.37 92 1009.4
20260506181202 9 125 0.0 3.2 0.00 3.25 1.37 92 1009.5
20260506180202 9 125 1.6 6.4 0.00 3.25 1.37 92 1009.5
20260506175202 8 98 0.0 3.2 0.00 3.25 1.37 92 1009.5
20260506174201 8 98 0.0 4.8 0.00 3.25 1.37 92 1009.5
20260506173202 8 98 0.0 3.2 0.00 3.25 1.37 93 1009.5
20260506172202 8 98 0.0 4.8 0.00 3.25 1.37 93 1009.7
20260506171202 8 98 0.0 3.2 0.00 3.25 1.37 93 1009.7
20260506170245 8 98 1.6 6.4 0.00 3.25 1.37 93 1009.6
20260506165201 8 98 0.0 6.4 0.00 3.25 1.37 93 1009.4
20260506164203 8 98 0.0 6.4 0.00 3.25 1.37 93 1009.5
20260506163202 8 98 1.6 3.2 0.00 3.25 1.37 93 1009.3
20260506162202 8 98 0.0 1.6 0.00 3.25 1.37 93 1009.4
20260506161201 8 98 1.6 3.2 0.00 3.25 1.37 93 1009.5
20260506160202 8 98 0.0 4.8 0.00 3.25 1.37 93 1009.4
20260506155201 8 98 0.0 4.8 0.00 3.25 1.37 93 1009.3
20260506154202 8 98 0.0 3.2 0.00 3.25 1.37 93 1009.3
20260506153201 8 81 0.0 1.6 0.00 3.25 1.37 93 1009.3
20260506152203 8 81 0.0 8.0 0.00 3.25 1.37 93 1009.2
20260506151201 8 81 3.2 4.8 0.00 3.25 1.37 93 1009.0
20260506150204 7 81 1.6 8.0 0.00 3.25 1.37 93 1009.1
20260506145202 7 81 1.6 6.4 0.03 3.25 1.37 93 1009.0
20260506144203 7 96 4.8 9.7 0.03 3.25 1.37 94 1008.9
20260506143202 7 87 3.2 4.8 0.03 3.25 1.37 93 1008.7
20260506142201 7 74 0.0 4.8 0.03 3.25 1.37 93 1009.0
20260506141202 7 74 1.6 4.8 0.00 3.23 1.35 93 1009.0
20260506140201 7 57 1.6 6.4 0.00 3.23 1.35 93 1008.8
20260506135202 7 109 0.0 0.0 0.03 3.23 1.35 93 1008.7
20260506134222 7 109 0.0 3.2 0.00 3.20 1.32 93 1008.6
20260506133202 7 109 1.6 4.8 0.00 3.20 1.32 93 1008.5
20260506132203 7 108 0.0 4.8 0.00 3.20 1.32 93 1008.4
20260506131202 7 107 0.0 6.4 0.00 3.20 1.32 93 1008.4
20260506130201 7 91 1.6 3.2 0.00 3.20 1.32 93 1008.3
20260506125202 7 91 0.0 9.7 0.05 3.20 1.32 93 1008.2
20260506124229 7 110 3.2 6.4 0.05 3.20 1.32 93 1008.3
20260506123202 6 107 0.0 6.4 0.03 3.17 1.30 93 1008.3
20260506121203 6 109 3.2 11.3 0.00 3.15 1.27 93 1008.0
20260506120202 6 107 1.6 11.3 0.00 3.15 1.27 93 1007.8
20260506115205 6 109 1.6 14.5 0.08 3.15 1.27 93 1007.7
20260506114203 7 110 4.8 12.9 0.05 3.12 1.24 93 1007.6
20260506113201 7 105 6.4 12.9 0.05 3.12 1.24 93 1007.7
20260506112202 7 104 4.8 11.3 0.03 3.10 1.22 93 1007.6
20260506111202 7 97 6.4 12.9 0.00 3.07 1.19 93 1007.8
20260506110203 7 100 4.8 12.9 0.00 3.07 1.19 93 1008.0
20260506105201 7 83 3.2 12.9 0.08 3.05 1.17 93 1007.9
20260506104203 7 69 0.0 0.0 0.08 3.05 1.17 93 1007.7
20260506103201 7 71 0.0 6.4 0.05 3.02 1.14 93 1007.7
20260506102223 7 87 4.8 9.7 0.05 3.02 1.14 93 1007.2
20260506101201 7 119 3.2 11.3 0.03 3.00 1.12 93 1007.3
20260506100203 7 91 3.2 6.4 0.03 3.00 1.12 93 1007.8